map of BIU home
BIU - Airport
Location
City:  Bíldudalur, Iceland
ICAO:BIBD
IATA:BIU

Details
Type:Airport (Aerodrome, Airfield)
Latitude:65°38'29"N (65.641389)
Longitude:23°32'46"W (-23.546110)
Elevation:18 ft (5 m)
Variation:14.81°W (WMM2015v2 magnetic declination)
0.34° annual change
Runways:1
Longest:3084 × 98 ft (940 × 30 m), paved

Time
Time Zone:UTC+0
Local Time:

Weather
METAR:BIBD 041400Z 07010KT 9999 SCT040 M00/M05 Q1012

Related Locations
Nearby:
Farthest:NZTB: 11779 mi / 18957 km
Terra Nova Bay [Mario Zucchelli Station], AQ

Find:

   beyond  
but within

Other Information
Maps:
NOTAMs:
Links:
Sources:

  
  • flag of Iceland
  

Sectional Chart

Flight Planning
at skyvector.com

Satellite Image

Google Maps Satellite view

 

Copyright © 2004-2019 Karl L. Swartz. All rights reserved.
The Great Circle Mapper name and logo are trademarks of the Great Circle Mapper.
All other trademarks mentioned herein belong to their respective owners.
Please see credits for attibutions and further copyright information.

  Follow gcmap on Facebook Follow gcmap on Twitter GCmap on LinkedIn

hCard Microformat

Geo Microformat